Hourly Weather Suhanovka

Today, 20 January, Wednesday

Time Temperature Precipitation Wind Pressure Humidity
00:00 -16°C° 0 mm 1 mps 769 mmHg 68%
01:00 -16°C° 0 mm 1 mps 769 mmHg 66%
02:00 -16°C° 0 mm 1 mps 768 mmHg 63%
03:00 -16°C° 0 mm 1 mps 768 mmHg 59%
04:00 -16°C° 0 mm 1 mps 768 mmHg 58%
05:00 -16°C° 0 mm 1 mps 768 mmHg 58%
06:00 -16°C° 0 mm 1 mps 768 mmHg 58%
07:00 -15°C° 0 mm 1 mps 768 mmHg 57%
08:00 -15°C° 0 mm 1 mps 768 mmHg 57%
09:00 -14°C° 0 mm 1 mps 768 mmHg 52%
10:00 -12°C° 0 mm 1 mps 767 mmHg 52%
11:00 -10°C° 0 mm 1 mps 767 mmHg 52%
12:00 -8°C° 0 mm 0 mps 766 mmHg 51%
13:00 -8°C° 0 mm 0 mps 765 mmHg 57%
14:00 -8°C° 0 mm 1 mps 764 mmHg 62%
15:00 -8°C° 0 mm 1 mps 763 mmHg 66%
16:00 -9°C° 0 mm 1 mps 763 mmHg 73%
17:00 -9°C° 0 mm 0 mps 763 mmHg 80%
18:00 -10°C° 0 mm 0 mps 763 mmHg 88%
19:00 -10°C° 0 mm 1 mps 762 mmHg 89%
20:00 -10°C° 0 mm 1 mps 762 mmHg 91%
21:00 -10°C° 0 mm 1 mps 762 mmHg 92%
22:00 -10°C° 0 mm 1 mps 762 mmHg 92%
23:00 -12°C° 0 mm 2 mps 762 mmHg 92%

Tomorrow, 21 January, Thursday

Time Temperature Precipitation Wind Pressure Humidity
00:00 -12°C° 0 mm 2 mps 762 mmHg 92%
01:00 -12°C° 0 mm 2 mps 762 mmHg 91%
02:00 -12°C° 0 mm 2 mps 762 mmHg 89%
03:00 -12°C° 0 mm 2 mps 762 mmHg 88%
04:00 -10°C° 0 mm 2 mps 762 mmHg 88%
05:00 -12°C° 0 mm 3 mps 762 mmHg 88%
06:00 -12°C° 0 mm 3 mps 762 mmHg 89%
07:00 -10°C° 0 mm 3 mps 762 mmHg 88%
08:00 -10°C° 0 mm 4 mps 762 mmHg 88%
09:00 -9°C° 0 mm 4 mps 762 mmHg 88%
10:00 -7°C° 0 mm 4 mps 762 mmHg 79%
11:00 -3°C° 0 mm 4 mps 762 mmHg 71%
12:00 -1°C° 0 mm 4 mps 762 mmHg 63%
13:00 0°C° 0 mm 3 mps 761 mmHg 64%
14:00 +1°C° 0 mm 2 mps 760 mmHg 64%
15:00 +1°C° 0 mm 2 mps 760 mmHg 65%
16:00 +1°C° 0 mm 1 mps 760 mmHg 71%
17:00 -1°C° 0 mm 1 mps 760 mmHg 78%
18:00 -2°C° 0 mm 1 mps 760 mmHg 84%
19:00 -3°C° 0 mm 1 mps 760 mmHg 85%
20:00 -3°C° 0 mm 1 mps 760 mmHg 86%
21:00 -3°C° 0 mm 1 mps 760 mmHg 87%
22:00 -4°C° 0 mm 1 mps 760 mmHg 89%
23:00 -6°C° 0 mm 2 mps 760 mmHg 90%

Day after tomorrow, 22 January, Friday

Time Temperature Precipitation Wind Pressure Humidity
00:00 -6°C° 0 mm 2 mps 760 mmHg 91%
01:00 -6°C° 0 mm 2 mps 760 mmHg 92%
02:00 -6°C° 0 mm 2 mps 759 mmHg 94%
03:00 -6°C° 0 mm 2 mps 759 mmHg 96%
04:00 -7°C° 0.1 mm 2 mps 759 mmHg 96%
05:00 -8°C° 0.1 mm 3 mps 759 mmHg 96%
06:00 -8°C° 0.1 mm 3 mps 760 mmHg 96%
07:00 -8°C° 0 mm 3 mps 760 mmHg 93%
08:00 -8°C° 0 mm 3 mps 761 mmHg 90%
09:00 -8°C° 0 mm 3 mps 762 mmHg 88%
10:00 -7°C° 0 mm 3 mps 762 mmHg 78%
11:00 -5°C° 0 mm 3 mps 762 mmHg 69%
12:00 -4°C° 0 mm 3 mps 763 mmHg 59%
13:00 -4°C° 0 mm 4 mps 763 mmHg 57%
14:00 -4°C° 0 mm 4 mps 762 mmHg 54%
15:00 -3°C° 0 mm 4 mps 762 mmHg 51%
16:00 -5°C° 0 mm 4 mps 763 mmHg 58%
17:00 -8°C° 0 mm 5 mps 763 mmHg 65%
18:00 -11°C° 0 mm 5 mps 764 mmHg 72%
19:00 -11°C° 0 mm 5 mps 764 mmHg 73%
20:00 -11°C° 0 mm 4 mps 765 mmHg 74%
21:00 -11°C° 0 mm 4 mps 765 mmHg 75%
22:00 -12°C° 0 mm 4 mps 765 mmHg 75%
23:00 -12°C° 0 mm 3 mps 765 mmHg 76%

23 January, Saturday

Time Temperature Precipitation Wind Pressure Humidity
00:00 -12°C° 0 mm 3 mps 765 mmHg 76%
01:00 -12°C° 0 mm 3 mps 765 mmHg 74%
02:00 -13°C° 0 mm 3 mps 766 mmHg 72%
03:00 -12°C° 0 mm 2 mps 766 mmHg 69%
04:00 -13°C° 0 mm 3 mps 765 mmHg 68%
05:00 -13°C° 0 mm 3 mps 765 mmHg 67%
06:00 -13°C° 0 mm 3 mps 765 mmHg 65%
07:00 -13°C° 0 mm 3 mps 766 mmHg 63%
08:00 -13°C° 0 mm 3 mps 766 mmHg 61%
09:00 -12°C° 0 mm 3 mps 766 mmHg 58%
10:00 -9°C° 0 mm 2 mps 766 mmHg 53%
11:00 -7°C° 0 mm 2 mps 766 mmHg 48%
12:00 -5°C° 0 mm 2 mps 765 mmHg 43%
13:00 -5°C° 0 mm 2 mps 765 mmHg 46%
14:00 -3°C° 0 mm 1 mps 765 mmHg 48%
15:00 -3°C° 0 mm 1 mps 764 mmHg 50%
16:00 -4°C° 0 mm 1 mps 764 mmHg 58%
17:00 -6°C° 0 mm 1 mps 765 mmHg 67%
18:00 -7°C° 0 mm 0 mps 765 mmHg 75%
19:00 -7°C° 0 mm 0 mps 765 mmHg 78%
20:00 -8°C° 0 mm 0 mps 765 mmHg 81%
21:00 -8°C° 0 mm 0 mps 765 mmHg 84%
22:00 -8°C° 0 mm 0 mps 765 mmHg 86%
23:00 -8°C° 0 mm 1 mps 765 mmHg 88%

24 January, Sunday

Time Temperature Precipitation Wind Pressure Humidity
00:00 -9°C° 0 mm 1 mps 765 mmHg 89%
01:00 -9°C° 0 mm 1 mps 765 mmHg 90%
02:00 -9°C° 0 mm 1 mps 765 mmHg 90%
03:00 -9°C° 0 mm 1 mps 765 mmHg 91%
04:00 -9°C° 0 mm 1 mps 765 mmHg 91%
05:00 -9°C° 0 mm 1 mps 765 mmHg 91%
06:00 -10°C° 0 mm 2 mps 764 mmHg 91%
07:00 -10°C° 0 mm 2 mps 765 mmHg 89%
08:00 -9°C° 0 mm 2 mps 765 mmHg 87%
09:00 -9°C° 0 mm 2 mps 765 mmHg 84%
10:00 -7°C° 0 mm 2 mps 765 mmHg 76%
11:00 -4°C° 0 mm 2 mps 765 mmHg 67%
12:00 0°C° 0 mm 1 mps 765 mmHg 58%
13:00 0°C° 0 mm 1 mps 765 mmHg 57%
14:00 +1°C° 0 mm 1 mps 765 mmHg 56%
15:00 +1°C° 0 mm 1 mps 765 mmHg 55%
16:00 0°C° 0 mm 1 mps 765 mmHg 63%
17:00 -1°C° 0 mm 1 mps 766 mmHg 70%
18:00 -3°C° 0 mm 1 mps 766 mmHg 77%
19:00 -3°C° 0 mm 1 mps 767 mmHg 78%
20:00 -3°C° 0 mm 1 mps 767 mmHg 79%
21:00 -4°C° 0 mm 1 mps 767 mmHg 80%
22:00 -4°C° 0 mm 1 mps 768 mmHg 80%
23:00 -4°C° 0 mm 1 mps 768 mmHg 79%

25 January, Monday

Time Temperature Precipitation Wind Pressure Humidity
00:00 -4°C° 0 mm 1 mps 768 mmHg 79%
01:00 -4°C° 0 mm 1 mps 768 mmHg 78%
02:00 -6°C° 0 mm 1 mps 768 mmHg 77%
03:00 -7°C° 0 mm 2 mps 768 mmHg 76%
04:00 -6°C° 0 mm 1 mps 768 mmHg 76%
05:00 -6°C° 0 mm 1 mps 768 mmHg 75%
06:00 -6°C° 0 mm 1 mps 768 mmHg 75%
07:00 -6°C° 0 mm 1 mps 768 mmHg 71%
08:00 -4°C° 0 mm 1 mps 769 mmHg 68%
09:00 -4°C° 0 mm 1 mps 769 mmHg 65%
10:00 -2°C° 0 mm 1 mps 769 mmHg 61%
11:00 -1°C° 0 mm 1 mps 768 mmHg 57%
12:00 +1°C° 0 mm 1 mps 768 mmHg 54%
13:00 -1°C° 0 mm 2 mps 767 mmHg 58%
14:00 -2°C° 0 mm 2 mps 767 mmHg 62%
15:00 -2°C° 0 mm 2 mps 766 mmHg 66%
16:00 -3°C° 0 mm 2 mps 766 mmHg 72%
17:00 -4°C° 0 mm 2 mps 766 mmHg 78%
18:00 -5°C° 0 mm 2 mps 766 mmHg 84%
19:00 -4°C° 0 mm 2 mps 765 mmHg 84%
20:00 -4°C° 0 mm 2 mps 765 mmHg 84%
21:00 -4°C° 0 mm 2 mps 765 mmHg 85%
22:00 -5°C° 0 mm 3 mps 765 mmHg 87%
23:00 -5°C° 0 mm 3 mps 764 mmHg 90%
Show more